Location: Auttagershofen
(48.1940°N, 10.0237°E)
Time: 13:59:07
(UTC+00:00)

Lacrosse 5 rocket - Visible Passes

Search period start: 11 April 2026 00:00
Search period end: 21 April 2026 00:00
Orbit: 391 x 478 km, 57.0° (Epoch: 11 April)

Date Brightness Start Highest point End Pass type
(mag) Time Alt. Az. Time Alt. Az. Time Alt. Az.
11 Apr 2.7 03:11:58 15° S 03:11:58 15° S 03:12:53 10° S visible
11 Apr 0.5 19:56:27 10° SW 19:59:39 89° SE 20:00:41 40° NE visible
11 Apr 4.0 21:34:01 10° WNW 21:34:04 10° WNW 21:34:04 10° WNW visible
12 Apr 0.7 19:14:15 10° SW 19:17:24 55° SE 19:20:32 10° ENE visible
12 Apr 2.7 20:51:24 10° W 20:54:12 27° NNW 20:54:38 26° N visible
13 Apr 2.2 20:08:48 10° W 20:11:48 35° NNW 20:14:39 11° NE visible
13 Apr 3.9 21:46:54 10° NW 21:47:58 15° NNW 21:47:58 15° NNW visible
14 Apr 1.6 19:26:15 10° WSW 19:29:23 49° NNW 19:32:30 10° NE visible
14 Apr 3.3 21:04:15 10° WNW 21:06:35 18° N 21:07:35 16° NNE visible
15 Apr 0.9 18:43:47 10° WSW 18:47:00 74° NW 18:50:11 10° NE visible
15 Apr 3.2 20:21:32 10° WNW 20:24:03 21° NNW 20:26:33 10° NE visible
15 Apr 3.9 21:59:17 10° NW 22:00:13 14° NNW 22:00:13 14° NNW visible
16 Apr 2.9 19:38:47 10° WNW 19:41:29 25° NNW 19:44:12 10° NE visible
16 Apr 3.3 21:16:46 10° NW 21:18:56 17° N 21:19:24 16° NNE visible
17 Apr 2.5 18:56:02 10° W 18:58:57 31° NNW 19:01:51 10° NE visible
17 Apr 3.4 20:34:08 10° NW 20:36:19 17° N 20:38:27 10° NE visible
17 Apr 3.9 22:11:05 10° NW 22:11:43 14° NNW 22:11:43 14° NNW visible
18 Apr 3.4 19:51:23 10° NW 19:53:40 18° N 19:55:56 10° NE visible
18 Apr 3.2 21:28:40 10° NW 21:30:41 20° N 21:30:41 20° N visible
19 Apr 3.2 19:08:34 10° WNW 19:11:00 20° NNW 19:13:25 10° NE visible
19 Apr 3.1 20:46:11 10° NW 20:48:30 18° N 20:49:35 16° NE visible
19 Apr 4.0 22:22:36 10° NW 22:22:51 12° NW 22:22:51 12° NW visible
20 Apr 3.3 20:03:35 10° NW 20:05:48 17° N 20:08:00 10° NE visible
20 Apr 3.1 21:40:09 10° NW 21:41:42 23° NNW 21:41:42 23° NNW visible
